QPF
0.00 0.00 0.00 0.00 0.00 0.00 0.00 0.00 0.00 0.00 0.01 0.01 0.03 0.03 0.01 0.00 0.00 0.00 0.00 0.00 0.00 0.00 0.00 0.00 0.01 0.01 0.01 0.01 0.00 0.01 0.01 0.02 0.02 0.03 0.02 0.02 0.02 0.03 0.04 0.03 0.02 0.03 0.04 0.04
0.00 0.00 0.00 0.00 0.00 0.00 0.00 0.00 0.00 0.00 0.00 0.01 0.02 0.03 0.02 0.01 0.00 0.00 0.00 0.00 0.00 0.00 0.00 0.01 0.01 0.02 0.02 0.01 0.01 0.00 0.01 0.01 0.02 0.02 0.01 0.02 0.02 0.03 0.04 0.04 0.04 0.03 0.02 0.03
0.00 0.00 0.00 0.00 0.00 0.00 0.00 0.00 0.00 0.00 0.00 0.01 0.02 0.03 0.03 0.01 0.00 0.00 0.00 0.00 0.00 0.00 0.00 0.00 0.01 0.02 0.01 0.01 0.01 0.01 0.01 0.01 0.01 0.02 0.01 0.02 0.03 0.05 0.04 0.04 0.04 0.03 0.03 0.03
0.00 0.00 0.00 0.00 0.00 0.00 0.00 0.00 0.00 0.00 0.00 0.00 0.01 0.02 0.04 0.02 0.00 0.00 0.00 0.00 0.00 0.00 0.00 0.01 0.01 0.01 0.01 0.01 0.02 0.02 0.02 0.01 0.01 0.01 0.00 0.01 0.02 0.04 0.03 0.03 0.03 0.04 0.04 0.03
0.00 0.00 0.00 0.00 0.00 0.00 0.00 0.00 0.00 0.00 0.00 0.00 0.00 0.01 0.04 0.04 0.01 0.00 0.00 0.00 0.00 0.00 0.00 0.00 0.01 0.01 0.01 0.01 0.01 0.02 0.02 0.02 0.02 0.01 0.01 0.00 0.01 0.01 0.02 0.02 0.03 0.04 0.04 0.03
0.00 0.00 0.00 0.00 0.00 0.00 0.00 0.00 0.01 0.01 0.01 0.01 0.00 0.01 0.03 0.04 0.01 0.00 0.00 0.00 0.00 0.00 0.00 0.00 0.01 0.01 0.01 0.00 0.01 0.01 0.02 0.02 0.02 0.02 0.02 0.01 0.01 0.01 0.01 0.02 0.03 0.03 0.03 0.03
0.02 0.02 0.01 0.01 0.01 0.01 0.01 0.01 0.01 0.01 0.01 0.01 0.01 0.01 0.01 0.03 0.02 0.00 0.00 0.00 0.00 0.00 0.00 0.00 0.00 0.01 0.00 0.00 0.00 0.01 0.01 0.02 0.01 0.02 0.02 0.02 0.02 0.02 0.01 0.02 0.03 0.03 0.03 0.04
0.01 0.01 0.01 0.00 0.00 0.00 0.01 0.01 0.01 0.01 0.01 0.00 0.01 0.01 0.01 0.02 0.01 0.01 0.00 0.00 0.00 0.01 0.01 0.00 0.00 0.01 0.00 0.00 0.00 0.01 0.01 0.01 0.01 0.01 0.01 0.02 0.03 0.02 0.02 0.02 0.02 0.03 0.04 0.04
0.00 0.00 0.01 0.01 0.01 0.00 0.00 0.00 0.01 0.01 0.01 0.01 0.01 0.01 0.00 0.02 0.02 0.01 0.01 0.00 0.01 0.01 0.01 0.01 0.01 0.00 0.00 0.00 0.01 0.02 0.02 0.02 0.01 0.01 0.01 0.02 0.03 0.02 0.03 0.03 0.03 0.04 0.04 0.03
0.00 0.00 0.01 0.01 0.01 0.01 0.01 0.00 0.01 0.02 0.02 0.01 0.01 0.01 0.00 0.01 0.02 0.01 0.01 0.01 0.01 0.01 0.01 0.00 0.00 0.01 0.00 0.00 0.01 0.01 0.01 0.01 0.01 0.01 0.01 0.02 0.02 0.02 0.03 0.03 0.04 0.04 0.03 0.03
0.00 0.00 0.01 0.01 0.00 0.01 0.01 0.01 0.01 0.01 0.02 0.02 0.01 0.01 0.00 0.01 0.01 0.01 0.01 0.01 0.01 0.00 0.01 0.01 0.01 0.01 0.01 0.02 0.02 0.02 0.02 0.01 0.01 0.01 0.01 0.02 0.02 0.02 0.02 0.03 0.04 0.04 0.04 0.04
0.00 0.00 0.00 0.00 0.00 0.00 0.01 0.01 0.01 0.01 0.01 0.01 0.01 0.00 0.00 0.01 0.01 0.00 0.00 0.00 0.00 0.01 0.01 0.01 0.01 0.01 0.01 0.02 0.02 0.02 0.02 0.02 0.02 0.01 0.01 0.02 0.02 0.02 0.02 0.03 0.03 0.03 0.05 0.05
0.00 0.00 0.00 0.00 0.00 0.00 0.01 0.01 0.01 0.02 0.02 0.01 0.01 0.00 0.00 0.01 0.01 0.00 0.00 0.00 0.00 0.00 0.00 0.01 0.01 0.01 0.01 0.01 0.01 0.01 0.01 0.01 0.01 0.01 0.02 0.02 0.02 0.02 0.02 0.02 0.03 0.03 0.04 0.05
0.01 0.00 0.01 0.01 0.01 0.00 0.01 0.01 0.01 0.01 0.02 0.01 0.01 0.00 0.01 0.02 0.01 0.00 0.00 0.00 0.00 0.00 0.00 0.00 0.01 0.01 0.01 0.01 0.00 0.00 0.01 0.01 0.01 0.02 0.02 0.02 0.02 0.02 0.02 0.02 0.02 0.03 0.04 0.03
0.01 0.01 0.01 0.01 0.00 0.00 0.00 0.00 0.01 0.01 0.01 0.02 0.01 0.00 0.01 0.01 0.01 0.01 0.00 0.01 0.00 0.00 0.00 0.00 0.00 0.01 0.01 0.01 0.01 0.01 0.00 0.01 0.01 0.01 0.01 0.02 0.02 0.03 0.02 0.02 0.01 0.02 0.03 0.03
0.00 0.01 0.00 0.00 0.00 0.00 0.00 0.00 0.00 0.00 0.01 0.01 0.01 0.01 0.01 0.01 0.01 0.01 0.01 0.01 0.00 0.00 0.00 0.01 0.01 0.00 0.00 0.00 0.01 0.01 0.01 0.00 0.00 0.01 0.01 0.01 0.02 0.03 0.04 0.02 0.01 0.02 0.02 0.02
0.00 0.00 0.00 0.00 0.00 0.00 0.00 0.00 0.00 0.00 0.00 0.01 0.01 0.01 0.01 0.01 0.01 0.01 0.01 0.00 0.00 0.00 0.00 0.00 0.01 0.00 0.00 0.00 0.00 0.01 0.01 0.00 0.01 0.00 0.00 0.01 0.01 0.02 0.04 0.05 0.03 0.02 0.01 0.01
0.00 0.00 0.01 0.01 0.00 0.00 0.00 0.00 0.00 0.00 0.00 0.01 0.01 0.01 0.01 0.01 0.01 0.01 0.01 0.00 0.00 0.00 0.00 0.00 0.00 0.01 0.00 0.00 0.00 0.00 0.01 0.01 0.01 0.01 0.01 0.01 0.01 0.01 0.02 0.02 0.02 0.03 0.03 0.02
0.00 0.01 0.01 0.01 0.01 0.01 0.00 0.00 0.00 0.00 0.00 0.00 0.01 0.01 0.01 0.01 0.01 0.01 0.01 0.00 0.00 0.00 0.00 0.00 0.00 0.00 0.00 0.00 0.01 0.01 0.01 0.01 0.02 0.02 0.02 0.01 0.01 0.01 0.01 0.01 0.01 0.02 0.02 0.03
0.01 0.01 0.02 0.03 0.02 0.01 0.00 0.01 0.01 0.01 0.01 0.00 0.00 0.00 0.01 0.01 0.01 0.01 0.01 0.00 0.00 0.00 0.00 0.00 0.00 0.00 0.00 0.00 0.01 0.01 0.01 0.02 0.02 0.02 0.02 0.02 0.01 0.01 0.01 0.01 0.01 0.01 0.02 0.02
0.02 0.02 0.03 0.03 0.02 0.01 0.00 0.01 0.02 0.02 0.02 0.01 0.01 0.01 0.01 0.01 0.01 0.01 0.00 0.00 0.00 0.00 0.00 0.00 0.00 0.00 0.00 0.00 0.00 0.01 0.01 0.01 0.02 0.02 0.02 0.02 0.02 0.01 0.01 0.01 0.01 0.01 0.01 0.01
0.04 0.04 0.03 0.02 0.02 0.01 0.01 0.01 0.02 0.04 0.02 0.01 0.01 0.01 0.01 0.01 0.01 0.01 0.00 0.00 0.00 0.00 0.00 0.00 0.00 0.00 0.00 0.00 0.00 0.00 0.01 0.01 0.02 0.02 0.02 0.02 0.02 0.01 0.01 0.01 0.02 0.01 0.01 0.01
0.03 0.05 0.04 0.03 0.02 0.01 0.01 0.01 0.02 0.03 0.02 0.01 0.01 0.01 0.01 0.01 0.00 0.00 0.00 0.00 0.00 0.00 0.00 0.00 0.00 0.00 0.00 0.00 0.00 0.00 0.01 0.01 0.02 0.02 0.02 0.02 0.02 0.02 0.01 0.01 0.02 0.02 0.02 0.02
0.03 0.05 0.05 0.03 0.02 0.02 0.02 0.02 0.03 0.03 0.02 0.01 0.01 0.01 0.01 0.01 0.00 0.00 0.00 0.00 0.00 0.00 0.00 0.00 0.00 0.00 0.00 0.00 0.00 0.01 0.01 0.01 0.01 0.02 0.02 0.02 0.03 0.02 0.02 0.02 0.02 0.02 0.01 0.01
0.03 0.05 0.05 0.03 0.03 0.03 0.03 0.04 0.04 0.03 0.02 0.01 0.01 0.01 0.01 0.00 0.00 0.00 0.00 0.00 0.00 0.00 0.00 0.00 0.00 0.00 0.00 0.00 0.00 0.01 0.01 0.01 0.01 0.01 0.02 0.02 0.03 0.02 0.02 0.02 0.02 0.02 0.02 0.01
0.04 0.05 0.05 0.04 0.04 0.04 0.03 0.03 0.04 0.04 0.03 0.01 0.00 0.00 0.00 0.00 0.00 0.00 0.00 0.00 0.00 0.00 0.00 0.00 0.00 0.00 0.00 0.00 0.01 0.01 0.01 0.01 0.01 0.01 0.02 0.02 0.03 0.02 0.02 0.02 0.02 0.02 0.02 0.02
MSLP
1011.93 1012.77 1013.44 1013.92 1014.22 1014.37 1014.43 1014.42 1014.38 1014.30 1014.18 1014.02 1013.80 1013.54 1013.26 1012.98 1012.76 1012.62 1012.56 1012.60 1012.69 1012.80 1012.88 1012.91 1012.86 1012.76 1012.63 1012.51 1012.45 1012.48 1012.61 1012.83 1013.10 1013.37 1013.60 1013.75 1013.80 1013.75 1013.65 1013.52 1013.43 1013.40 1013.47 1013.64
1012.49 1013.17 1013.68 1014.02 1014.22 1014.33 1014.41 1014.47 1014.52 1014.55 1014.52 1014.42 1014.21 1013.92 1013.56 1013.20 1012.89 1012.68 1012.60 1012.63 1012.76 1012.94 1013.10 1013.19 1013.20 1013.11 1012.97 1012.82 1012.72 1012.70 1012.80 1013.00 1013.28 1013.58 1013.86 1014.05 1014.14 1014.12 1014.02 1013.88 1013.77 1013.72 1013.78 1013.95
1012.87 1013.36 1013.67 1013.86 1013.96 1014.05 1014.16 1014.32 1014.50 1014.66 1014.74 1014.70 1014.51 1014.17 1013.74 1013.28 1012.88 1012.59 1012.46 1012.50 1012.67 1012.92 1013.16 1013.35 1013.43 1013.39 1013.27 1013.12 1012.98 1012.93 1013.00 1013.20 1013.48 1013.81 1014.12 1014.36 1014.49 1014.50 1014.41 1014.28 1014.16 1014.10 1014.14 1014.30
1013.07 1013.34 1013.47 1013.51 1013.54 1013.63 1013.80 1014.08 1014.40 1014.70 1014.89 1014.91 1014.73 1014.35 1013.83 1013.25 1012.73 1012.36 1012.17 1012.20 1012.41 1012.74 1013.08 1013.37 1013.55 1013.59 1013.52 1013.38 1013.24 1013.17 1013.22 1013.40 1013.68 1014.02 1014.36 1014.64 1014.81 1014.85 1014.80 1014.68 1014.57 1014.51 1014.54 1014.70
1013.18 1013.23 1013.18 1013.10 1013.09 1013.20 1013.46 1013.87 1014.33 1014.77 1015.06 1015.13 1014.93 1014.49 1013.87 1013.17 1012.53 1012.05 1011.81 1011.82 1012.06 1012.45 1012.90 1013.30 1013.58 1013.71 1013.70 1013.60 1013.47 1013.39 1013.42 1013.57 1013.84 1014.19 1014.55 1014.85 1015.06 1015.15 1015.13 1015.05 1014.96 1014.90 1014.94 1015.09
1013.28 1013.14 1012.95 1012.78 1012.75 1012.91 1013.27 1013.80 1014.40 1014.94 1015.30 1015.39 1015.17 1014.65 1013.92 1013.10 1012.33 1011.75 1011.44 1011.43 1011.69 1012.14 1012.68 1013.18 1013.56 1013.78 1013.84 1013.77 1013.66 1013.57 1013.57 1013.70 1013.95 1014.28 1014.65 1014.98 1015.22 1015.36 1015.39 1015.35 1015.29 1015.26 1015.31 1015.45
1013.45 1013.17 1012.88 1012.67 1012.65 1012.86 1013.31 1013.94 1014.63 1015.24 1015.63 1015.71 1015.44 1014.83 1013.99 1013.05 1012.17 1011.49 1011.12 1011.09 1011.36 1011.86 1012.47 1013.06 1013.53 1013.83 1013.94 1013.91 1013.80 1013.70 1013.68 1013.77 1013.99 1014.30 1014.66 1015.00 1015.28 1015.47 1015.55 1015.56 1015.55 1015.55 1015.61 1015.76
1013.75 1013.39 1013.04 1012.83 1012.83 1013.09 1013.60 1014.28 1015.00 1015.62 1015.99 1016.02 1015.67 1014.97 1014.03 1012.99 1012.03 1011.29 1010.87 1010.82 1011.11 1011.64 1012.31 1012.96 1013.50 1013.86 1014.02 1014.02 1013.91 1013.79 1013.73 1013.79 1013.96 1014.25 1014.60 1014.95 1015.26 1015.48 1015.62 1015.69 1015.72 1015.76 1015.84 1016.00
1014.18 1013.79 1013.45 1013.25 1013.27 1013.55 1014.07 1014.73 1015.41 1015.97 1016.26 1016.20 1015.76 1014.98 1013.96 1012.86 1011.86 1011.09 1010.67 1010.63 1010.93 1011.50 1012.20 1012.90 1013.49 1013.89 1014.08 1014.09 1013.99 1013.85 1013.76 1013.78 1013.92 1014.17 1014.50 1014.86 1015.18 1015.45 1015.63 1015.75 1015.83 1015.90 1016.01 1016.17
1014.71 1014.35 1014.03 1013.85 1013.88 1014.13 1014.59 1015.16 1015.73 1016.15 1016.32 1016.13 1015.59 1014.74 1013.68 1012.58 1011.59 1010.85 1010.46 1010.46 1010.80 1011.40 1012.13 1012.86 1013.47 1013.89 1014.11 1014.13 1014.03 1013.89 1013.78 1013.77 1013.88 1014.11 1014.42 1014.77 1015.11 1015.40 1015.63 1015.79 1015.90 1016.01 1016.13 1016.30
1015.27 1014.96 1014.68 1014.52 1014.51 1014.69 1015.02 1015.43 1015.80 1016.04 1016.02 1015.70 1015.07 1014.18 1013.13 1012.07 1011.15 1010.50 1010.19 1010.25 1010.64 1011.28 1012.03 1012.78 1013.40 1013.84 1014.08 1014.12 1014.04 1013.91 1013.80 1013.78 1013.88 1014.09 1014.40 1014.74 1015.09 1015.40 1015.65 1015.84 1015.98 1016.10 1016.24 1016.41
1015.77 1015.53 1015.29 1015.11 1015.04 1015.09 1015.24 1015.42 1015.56 1015.56 1015.36 1014.89 1014.18 1013.28 1012.29 1011.33 1010.53 1010.01 1009.82 1009.97 1010.42 1011.09 1011.86 1012.62 1013.25 1013.71 1013.96 1014.04 1014.00 1013.90 1013.82 1013.83 1013.94 1014.15 1014.46 1014.80 1015.16 1015.48 1015.74 1015.94 1016.10 1016.24 1016.37 1016.54
1016.14 1015.96 1015.75 1015.54 1015.37 1015.25 1015.18 1015.12 1015.00 1014.76 1014.36 1013.77 1013.01 1012.14 1011.23 1010.41 1009.77 1009.40 1009.34 1009.59 1010.11 1010.81 1011.59 1012.34 1012.98 1013.45 1013.74 1013.87 1013.89 1013.85 1013.84 1013.89 1014.04 1014.28 1014.60 1014.96 1015.31 1015.64 1015.91 1016.12 1016.29 1016.43 1016.57 1016.73
1016.34 1016.21 1015.99 1015.73 1015.44 1015.16 1014.86 1014.55 1014.18 1013.72 1013.15 1012.47 1011.69 1010.88 1010.09 1009.42 1008.95 1008.74 1008.81 1009.15 1009.71 1010.42 1011.19 1011.94 1012.57 1013.06 1013.40 1013.59 1013.69 1013.75 1013.82 1013.96 1014.16 1014.45 1014.80 1015.17 1015.54 1015.88 1016.15 1016.38 1016.55 1016.70 1016.84 1017.01
1016.36 1016.24 1016.00 1015.68 1015.28 1014.83 1014.34 1013.82 1013.24 1012.61 1011.92 1011.18 1010.42 1009.68 1009.01 1008.50 1008.18 1008.10 1008.26 1008.66 1009.24 1009.94 1010.69 1011.40 1012.03 1012.54 1012.93 1013.20 1013.40 1013.57 1013.75 1013.98 1014.27 1014.62 1015.01 1015.42 1015.81 1016.16 1016.45 1016.69 1016.88 1017.05 1017.20 1017.38
1016.21 1016.07 1015.80 1015.41 1014.92 1014.35 1013.72 1013.04 1012.33 1011.59 1010.83 1010.07 1009.35 1008.69 1008.15 1007.75 1007.55 1007.55 1007.77 1008.18 1008.74 1009.39 1010.09 1010.77 1011.38 1011.91 1012.35 1012.71 1013.02 1013.30 1013.61 1013.94 1014.32 1014.74 1015.19 1015.64 1016.06 1016.44 1016.77 1017.04 1017.27 1017.46 1017.64 1017.83
1015.93 1015.75 1015.44 1015.00 1014.45 1013.80 1013.10 1012.34 1011.56 1010.78 1010.01 1009.28 1008.61 1008.02 1007.56 1007.25 1007.11 1007.14 1007.35 1007.72 1008.22 1008.81 1009.43 1010.06 1010.66 1011.21 1011.70 1012.14 1012.56 1012.96 1013.38 1013.83 1014.30 1014.79 1015.30 1015.80 1016.27 1016.70 1017.07 1017.39 1017.66 1017.90 1018.12 1018.34
1015.55 1015.31 1014.96 1014.49 1013.92 1013.26 1012.54 1011.79 1011.01 1010.25 1009.52 1008.83 1008.21 1007.68 1007.27 1006.98 1006.84 1006.84 1007.00 1007.29 1007.70 1008.19 1008.74 1009.32 1009.90 1010.47 1011.02 1011.54 1012.06 1012.57 1013.09 1013.63 1014.18 1014.75 1015.31 1015.87 1016.39 1016.88 1017.31 1017.70 1018.04 1018.34 1018.61 1018.87
1015.12 1014.81 1014.42 1013.94 1013.38 1012.76 1012.09 1011.39 1010.68 1009.98 1009.30 1008.67 1008.09 1007.59 1007.17 1006.86 1006.66 1006.59 1006.65 1006.84 1007.14 1007.55 1008.03 1008.57 1009.15 1009.75 1010.35 1010.96 1011.56 1012.16 1012.77 1013.38 1013.99 1014.61 1015.22 1015.83 1016.41 1016.96 1017.47 1017.93 1018.35 1018.72 1019.06 1019.37
1014.69 1014.31 1013.88 1013.40 1012.87 1012.31 1011.72 1011.10 1010.48 1009.86 1009.25 1008.66 1008.10 1007.58 1007.12 1006.74 1006.46 1006.28 1006.23 1006.31 1006.52 1006.85 1007.30 1007.83 1008.42 1009.07 1009.74 1010.41 1011.09 1011.76 1012.43 1013.09 1013.74 1014.39 1015.04 1015.69 1016.32 1016.93 1017.52 1018.07 1018.57 1019.02 1019.43 1019.78
1014.29 1013.83 1013.35 1012.87 1012.39 1011.89 1011.38 1010.87 1010.34 1009.79 1009.23 1008.65 1008.08 1007.52 1006.98 1006.50 1006.11 1005.82 1005.67 1005.66 1005.80 1006.10 1006.53 1007.09 1007.74 1008.44 1009.19 1009.94 1010.68 1011.40 1012.10 1012.78 1013.45 1014.11 1014.78 1015.45 1016.13 1016.80 1017.46 1018.08 1018.67 1019.20 1019.67 1020.08
1013.94 1013.39 1012.86 1012.37 1011.91 1011.48 1011.04 1010.60 1010.14 1009.64 1009.10 1008.52 1007.90 1007.26 1006.63 1006.04 1005.54 1005.15 1004.91 1004.84 1004.96 1005.27 1005.74 1006.36 1007.09 1007.88 1008.70 1009.52 1010.31 1011.07 1011.78 1012.47 1013.13 1013.79 1014.45 1015.14 1015.84 1016.56 1017.28 1017.98 1018.64 1019.24 1019.77 1020.23
1013.63 1012.99 1012.41 1011.90 1011.45 1011.04 1010.66 1010.26 1009.84 1009.36 1008.81 1008.18 1007.50 1006.77 1006.03 1005.34 1004.73 1004.26 1003.97 1003.89 1004.03 1004.38 1004.93 1005.64 1006.47 1007.36 1008.26 1009.15 1009.98 1010.76 1011.47 1012.13 1012.77 1013.41 1014.07 1014.75 1015.48 1016.23 1017.00 1017.75 1018.47 1019.13 1019.72 1020.22
1013.36 1012.63 1011.99 1011.44 1010.98 1010.58 1010.21 1009.84 1009.42 1008.93 1008.34 1007.65 1006.88 1006.06 1005.22 1004.43 1003.75 1003.23 1002.92 1002.86 1003.04 1003.47 1004.12 1004.95 1005.88 1006.87 1007.85 1008.79 1009.66 1010.44 1011.13 1011.77 1012.38 1012.99 1013.63 1014.31 1015.04 1015.82 1016.62 1017.42 1018.19 1018.89 1019.52 1020.06
1013.08 1012.28 1011.58 1010.99 1010.51 1010.11 1009.74 1009.36 1008.92 1008.40 1007.76 1007.00 1006.15 1005.24 1004.32 1003.45 1002.72 1002.17 1001.87 1001.84 1002.10 1002.61 1003.37 1004.29 1005.32 1006.39 1007.44 1008.42 1009.30 1010.08 1010.76 1011.37 1011.95 1012.53 1013.15 1013.82 1014.56 1015.35 1016.18 1017.01 1017.80 1018.54 1019.20 1019.77
1012.75 1011.89 1011.15 1010.54 1010.05 1009.64 1009.26 1008.87 1008.41 1007.86 1007.17 1006.36 1005.44 1004.46 1003.47 1002.56 1001.80 1001.25 1000.96 1000.98 1001.29 1001.88 1002.71 1003.72 1004.81 1005.94 1007.02 1008.02 1008.90 1009.67 1010.33 1010.92 1011.47 1012.04 1012.64 1013.31 1014.05 1014.86 1015.69 1016.54 1017.36 1018.12 1018.80 1019.39
Thickness
5734 5720 5710 5714 5717 5717 5713 5706 5702 5709 5721 5714 5708 5707 5714 5718 5716 5714 5712 5712 5712 5714 5717 5717 5717 5716 5714 5712 5711 5709 5708 5706 5705 5703 5701 5699 5698 5699 5699 5699 5698 5697 5697 5695
5714 5710 5719 5723 5720 5715 5709 5701 5700 5708 5717 5710 5702 5703 5711 5713 5713 5713 5711 5710 5710 5711 5711 5712 5712 5711 5710 5709 5707 5706 5705 5704 5703 5702 5700 5698 5696 5695 5695 5695 5695 5694 5693 5692
5707 5713 5724 5719 5712 5706 5703 5699 5699 5701 5706 5705 5700 5694 5701 5708 5710 5711 5710 5709 5709 5709 5707 5707 5707 5707 5706 5705 5704 5704 5703 5701 5700 5699 5697 5695 5693 5692 5691 5691 5690 5691 5690 5690
5707 5716 5717 5712 5707 5705 5695 5708 5705 5701 5690 5681 5690 5672 5690 5697 5700 5703 5704 5704 5705 5706 5706 5704 5704 5703 5703 5703 5702 5701 5700 5698 5697 5696 5693 5691 5688 5685 5686 5687 5687 5687 5688 5687
5703 5711 5710 5706 5708 5708 5702 5709 5702 5696 5687 5677 5680 5671 5678 5690 5691 5697 5701 5702 5703 5703 5703 5702 5702 5701 5701 5700 5699 5698 5697 5695 5694 5692 5690 5687 5685 5684 5683 5683 5683 5684 5684 5684
5705 5713 5712 5710 5713 5711 5707 5697 5689 5679 5672 5662 5673 5667 5670 5680 5690 5696 5700 5700 5700 5700 5700 5700 5699 5698 5697 5696 5696 5695 5692 5690 5689 5688 5686 5684 5682 5680 5679 5679 5678 5679 5679 5680
5693 5701 5707 5711 5703 5701 5695 5676 5658 5656 5650 5654 5671 5666 5670 5689 5696 5697 5698 5698 5698 5698 5696 5694 5694 5693 5692 5692 5691 5690 5688 5686 5685 5683 5682 5681 5680 5678 5677 5676 5675 5675 5675 5675
5675 5675 5694 5701 5697 5689 5685 5676 5655 5647 5644 5651 5664 5660 5675 5692 5697 5698 5699 5697 5695 5693 5692 5691 5691 5690 5689 5688 5687 5685 5684 5682 5681 5680 5678 5677 5676 5675 5675 5674 5673 5672 5672 5673
5666 5670 5691 5698 5699 5692 5679 5670 5671 5654 5651 5646 5651 5662 5677 5690 5690 5692 5692 5691 5690 5689 5689 5688 5687 5686 5685 5684 5683 5682 5680 5678 5678 5676 5675 5673 5672 5672 5671 5671 5671 5670 5670 5671
5670 5664 5678 5686 5692 5687 5682 5670 5656 5649 5641 5638 5648 5653 5660 5675 5679 5683 5684 5684 5685 5686 5685 5684 5683 5682 5681 5681 5680 5678 5676 5675 5674 5672 5671 5670 5669 5668 5668 5667 5667 5667 5668 5668
5668 5658 5663 5671 5671 5669 5670 5664 5654 5643 5643 5635 5634 5648 5673 5674 5677 5677 5679 5680 5681 5681 5680 5680 5679 5678 5677 5676 5674 5673 5671 5670 5669 5668 5667 5666 5665 5664 5664 5663 5664 5664 5664 5665
5657 5646 5644 5656 5669 5671 5668 5663 5652 5643 5639 5634 5631 5644 5675 5674 5674 5674 5674 5676 5677 5677 5676 5676 5674 5673 5671 5669 5668 5667 5666 5665 5665 5664 5663 5662 5661 5660 5660 5660 5661 5661 5661 5662
5651 5640 5633 5641 5649 5656 5656 5656 5649 5640 5631 5625 5627 5643 5668 5668 5668 5669 5669 5670 5670 5670 5669 5668 5667 5665 5664 5663 5662 5662 5661 5661 5660 5660 5659 5657 5657 5656 5656 5656 5657 5658 5658 5658
5648 5634 5630 5630 5634 5640 5643 5647 5645 5637 5626 5625 5631 5643 5656 5658 5659 5661 5662 5663 5663 5662 5662 5661 5660 5659 5658 5657 5657 5656 5656 5656 5655 5654 5653 5653 5653 5653 5653 5654 5654 5654 5654 5654
5640 5628 5629 5631 5635 5636 5636 5638 5639 5635 5633 5629 5636 5640 5649 5653 5654 5656 5657 5657 5657 5656 5656 5656 5654 5653 5652 5651 5651 5651 5651 5651 5650 5649 5648 5648 5649 5649 5649 5649 5649 5650 5650 5650
5627 5623 5623 5623 5628 5628 5628 5633 5634 5634 5634 5633 5635 5638 5649 5651 5651 5650 5650 5650 5650 5650 5650 5650 5649 5647 5646 5645 5645 5645 5645 5645 5645 5644 5643 5643 5643 5643 5643 5644 5644 5644 5644 5645
5615 5615 5611 5608 5616 5621 5618 5630 5632 5632 5634 5634 5630 5639 5643 5643 5645 5646 5645 5645 5644 5644 5644 5643 5642 5641 5640 5639 5639 5639 5640 5640 5639 5638 5638 5638 5638 5638 5638 5639 5638 5638 5638 5639
5610 5604 5597 5598 5606 5602 5622 5634 5634 5631 5632 5634 5635 5637 5637 5639 5640 5641 5641 5640 5639 5639 5638 5637 5636 5635 5635 5634 5634 5634 5634 5634 5633 5632 5632 5632 5632 5632 5632 5632 5632 5633 5633 5633
5609 5602 5591 5587 5590 5600 5618 5627 5626 5623 5624 5630 5630 5631 5632 5633 5633 5632 5636 5636 5634 5633 5633 5632 5631 5630 5629 5628 5628 5627 5627 5626 5626 5626 5625 5626 5626 5625 5626 5626 5626 5627 5627 5627
5601 5597 5588 5583 5587 5592 5613 5625 5626 5621 5615 5626 5625 5624 5624 5624 5617 5622 5629 5629 5628 5628 5627 5626 5626 5624 5622 5621 5621 5620 5619 5619 5619 5620 5620 5620 5620 5620 5620 5620 5621 5621 5621 5622
5591 5585 5581 5579 5580 5591 5611 5617 5618 5605 5611 5621 5620 5619 5617 5615 5616 5620 5621 5621 5621 5620 5620 5620 5618 5616 5615 5614 5613 5612 5612 5612 5614 5615 5615 5615 5615 5615 5614 5614 5615 5615 5615 5615
5585 5579 5576 5573 5575 5589 5610 5608 5604 5606 5613 5614 5614 5614 5612 5613 5614 5614 5614 5614 5614 5613 5612 5612 5610 5609 5608 5607 5606 5606 5606 5608 5608 5609 5609 5609 5609 5609 5609 5608 5608 5608 5607 5607
5582 5584 5581 5581 5589 5599 5603 5605 5607 5607 5606 5608 5607 5608 5608 5607 5607 5607 5607 5607 5606 5606 5605 5604 5602 5601 5601 5601 5600 5599 5601 5601 5601 5601 5602 5602 5602 5601 5601 5601 5600 5600 5600 5600
5581 5582 5579 5580 5589 5595 5598 5600 5601 5602 5602 5603 5603 5603 5602 5601 5600 5599 5599 5599 5598 5598 5598 5597 5595 5594 5594 5594 5594 5594 5594 5594 5594 5593 5593 5594 5593 5593 5593 5593 5593 5593 5593 5593
5578 5576 5574 5577 5585 5588 5594 5595 5596 5597 5597 5597 5597 5597 5596 5595 5595 5593 5592 5592 5591 5590 5590 5589 5588 5588 5588 5588 5587 5587 5587 5586 5585 5585 5585 5585 5585 5585 5585 5584 5584 5585 5586 5586
5572 5574 5573 5577 5585 5583 5588 5592 5593 5591 5591 5591 5592 5591 5591 5590 5589 5588 5586 5585 5584 5583 5583 5582 5581 5580 5581 5581 5581 5581 5580 5579 5578 5577 5577 5577 5576 5576 5575 5575 5575 5576 5577 5578